• In Belgium
  • List of Countries
  • For 7 days
  • Water Temperature
  • Satellite Maps
  • Weather Map
  • Weather Widgets
  • user-avatar
    Login

    Hourly Weather Sabaudia

    Today, 25 April, Wednesday

    Time Temperature Precipitation Wind Pressure Humidity
    00:00 +13°C° 0 mm 2 mps 734 mmHg 70%
    01:00 +13°C° 0 mm 2 mps 734 mmHg 70%
    02:00 +13°C° 0 mm 2 mps 734 mmHg 69%
    03:00 +13°C° 0 mm 2 mps 734 mmHg 72%
    04:00 +13°C° 0 mm 2 mps 734 mmHg 75%
    05:00 +12°C° 0 mm 2 mps 734 mmHg 78%
    06:00 +13°C° 0 mm 2 mps 734 mmHg 75%
    07:00 +14°C° 0 mm 2 mps 734 mmHg 73%
    08:00 +15°C° 0 mm 2 mps 734 mmHg 69%
    09:00 +17°C° 0 mm 3 mps 734 mmHg 65%
    10:00 +18°C° 0 mm 3 mps 733 mmHg 62%
    11:00 +19°C° 0 mm 4 mps 733 mmHg 58%
    12:00 +20°C° 0 mm 5 mps 733 mmHg 54%
    13:00 +22°C° 0 mm 5 mps 732 mmHg 50%
    14:00 +23°C° 0 mm 6 mps 731 mmHg 46%
    15:00 +23°C° 0 mm 6 mps 731 mmHg 48%
    16:00 +23°C° 0 mm 5 mps 730 mmHg 49%
    17:00 +23°C° 0 mm 5 mps 730 mmHg 51%
    18:00 +21°C° 0.1 mm 5 mps 730 mmHg 55%
    19:00 +20°C° 0.1 mm 4 mps 729 mmHg 58%
    20:00 +18°C° 0.1 mm 4 mps 729 mmHg 62%
    21:00 +18°C° 0.2 mm 4 mps 730 mmHg 67%
    22:00 +17°C° 0.2 mm 4 mps 730 mmHg 72%
    23:00 +15°C° 0.2 mm 4 mps 730 mmHg 77%

    Tomorrow, 26 April, Thursday

    Time Temperature Precipitation Wind Pressure Humidity
    00:00 +14°C° 0 mm 4 mps 731 mmHg 80%
    01:00 +13°C° 0 mm 4 mps 731 mmHg 83%
    02:00 +12°C° 0 mm 4 mps 731 mmHg 86%
    03:00 +12°C° 0 mm 4 mps 732 mmHg 87%
    04:00 +11°C° 0 mm 4 mps 732 mmHg 89%
    05:00 +10°C° 0 mm 3 mps 732 mmHg 91%
    06:00 +10°C° 0 mm 4 mps 733 mmHg 84%
    07:00 +11°C° 0 mm 4 mps 734 mmHg 78%
    08:00 +11°C° 0 mm 4 mps 734 mmHg 71%
    09:00 +12°C° 0 mm 4 mps 734 mmHg 65%
    10:00 +13°C° 0 mm 4 mps 734 mmHg 60%
    11:00 +14°C° 0 mm 4 mps 735 mmHg 54%
    12:00 +14°C° 0 mm 3 mps 734 mmHg 56%
    13:00 +14°C° 0 mm 3 mps 734 mmHg 58%
    14:00 +15°C° 0 mm 2 mps 734 mmHg 59%
    15:00 +14°C° 0.1 mm 2 mps 734 mmHg 64%
    16:00 +14°C° 0.1 mm 2 mps 734 mmHg 68%
    17:00 +14°C° 0.1 mm 2 mps 734 mmHg 73%
    18:00 +13°C° 0.2 mm 2 mps 734 mmHg 77%
    19:00 +11°C° 0.2 mm 3 mps 734 mmHg 82%
    20:00 +11°C° 0.2 mm 3 mps 734 mmHg 86%
    21:00 +10°C° 0 mm 3 mps 734 mmHg 85%
    22:00 +10°C° 0 mm 4 mps 734 mmHg 83%
    23:00 +10°C° 0 mm 4 mps 735 mmHg 82%

    Day after tomorrow, 27 April, Friday

    Time Temperature Precipitation Wind Pressure Humidity
    00:00 +8°C° 0 mm 4 mps 735 mmHg 83%
    01:00 +7°C° 0 mm 4 mps 735 mmHg 85%
    02:00 +7°C° 0 mm 3 mps 736 mmHg 86%
    03:00 +7°C° 0 mm 3 mps 736 mmHg 87%
    04:00 +5°C° 0 mm 3 mps 736 mmHg 89%
    05:00 +4°C° 0 mm 3 mps 736 mmHg 90%
    06:00 +7°C° 0 mm 3 mps 737 mmHg 85%
    07:00 +7°C° 0 mm 4 mps 737 mmHg 80%
    08:00 +8°C° 0 mm 4 mps 738 mmHg 75%
    09:00 +10°C° 0 mm 4 mps 738 mmHg 68%
    10:00 +12°C° 0 mm 4 mps 738 mmHg 60%
    11:00 +13°C° 0 mm 4 mps 738 mmHg 52%
    12:00 +14°C° 0 mm 4 mps 738 mmHg 49%
    13:00 +14°C° 0 mm 4 mps 738 mmHg 46%
    14:00 +16°C° 0 mm 3 mps 738 mmHg 43%
    15:00 +16°C° 0 mm 3 mps 738 mmHg 43%
    16:00 +16°C° 0 mm 3 mps 738 mmHg 43%
    17:00 +16°C° 0 mm 2 mps 737 mmHg 43%
    18:00 +14°C° 0 mm 2 mps 737 mmHg 48%
    19:00 +13°C° 0 mm 1 mps 737 mmHg 53%
    20:00 +11°C° 0 mm 1 mps 737 mmHg 58%
    21:00 +11°C° 0 mm 1 mps 738 mmHg 60%
    22:00 +9°C° 0 mm 2 mps 738 mmHg 63%
    23:00 +8°C° 0 mm 3 mps 738 mmHg 66%

    28 April, Saturday

    Time Temperature Precipitation Wind Pressure Humidity
    00:00 +8°C° 0 mm 3 mps 738 mmHg 68%
    01:00 +8°C° 0 mm 3 mps 737 mmHg 70%
    02:00 +8°C° 0 mm 3 mps 737 mmHg 72%
    03:00 +7°C° 0 mm 3 mps 737 mmHg 73%
    04:00 +7°C° 0 mm 3 mps 737 mmHg 74%
    05:00 +7°C° 0 mm 3 mps 736 mmHg 76%
    06:00 +9°C° 0 mm 3 mps 736 mmHg 72%
    07:00 +10°C° 0 mm 4 mps 736 mmHg 69%
    08:00 +12°C° 0 mm 4 mps 736 mmHg 65%
    09:00 +14°C° 0 mm 4 mps 736 mmHg 59%
    10:00 +17°C° 0 mm 3 mps 736 mmHg 54%
    11:00 +19°C° 0 mm 3 mps 736 mmHg 48%
    12:00 +20°C° 0 mm 3 mps 736 mmHg 46%
    13:00 +21°C° 0 mm 4 mps 736 mmHg 45%
    14:00 +22°C° 0 mm 4 mps 736 mmHg 43%
    15:00 +22°C° 0 mm 3 mps 736 mmHg 45%
    16:00 +24°C° 0 mm 3 mps 735 mmHg 47%
    17:00 +24°C° 0 mm 3 mps 735 mmHg 48%
    18:00 +21°C° 0 mm 2 mps 735 mmHg 54%
    19:00 +19°C° 0 mm 2 mps 735 mmHg 60%
    20:00 +18°C° 0 mm 1 mps 735 mmHg 66%
    21:00 +16°C° 0 mm 2 mps 736 mmHg 70%
    22:00 +16°C° 0 mm 2 mps 736 mmHg 75%
    23:00 +15°C° 0 mm 2 mps 736 mmHg 79%

    29 April, Sunday

    Time Temperature Precipitation Wind Pressure Humidity
    00:00 +15°C° 0 mm 2 mps 736 mmHg 83%
    01:00 +14°C° 0 mm 2 mps 736 mmHg 86%
    02:00 +14°C° 0 mm 2 mps 736 mmHg 90%
    03:00 +13°C° 0 mm 1 mps 736 mmHg 90%
    04:00 +13°C° 0 mm 1 mps 736 mmHg 91%
    05:00 +13°C° 0 mm 1 mps 737 mmHg 91%
    06:00 +14°C° 0 mm 1 mps 737 mmHg 87%
    07:00 +15°C° 0 mm 1 mps 737 mmHg 82%
    08:00 +18°C° 0 mm 1 mps 737 mmHg 77%
    09:00 +19°C° 0 mm 2 mps 737 mmHg 72%
    10:00 +20°C° 0 mm 2 mps 737 mmHg 66%
    11:00 +23°C° 0 mm 2 mps 737 mmHg 61%
    12:00 +24°C° 0.3 mm 2 mps 737 mmHg 59%
    13:00 +24°C° 0.3 mm 2 mps 737 mmHg 58%
    14:00 +25°C° 0.3 mm 2 mps 736 mmHg 56%
    15:00 +25°C° 0.1 mm 2 mps 736 mmHg 58%
    16:00 +24°C° 0.1 mm 2 mps 736 mmHg 60%
    17:00 +24°C° 0.1 mm 3 mps 736 mmHg 62%
    18:00 +23°C° 0.2 mm 2 mps 735 mmHg 68%
    19:00 +20°C° 0.2 mm 2 mps 735 mmHg 73%
    20:00 +19°C° 0.2 mm 2 mps 735 mmHg 78%
    21:00 +18°C° 0.3 mm 2 mps 735 mmHg 80%
    22:00 +18°C° 0.3 mm 3 mps 735 mmHg 82%
    23:00 +17°C° 0.3 mm 3 mps 735 mmHg 83%

    30 April, Monday

    Time Temperature Precipitation Wind Pressure Humidity
    00:00 +16°C° 0.1 mm 3 mps 734 mmHg 83%
    01:00 +15°C° 0.1 mm 2 mps 734 mmHg 83%
    02:00 +14°C° 0.1 mm 2 mps 734 mmHg 83%
    03:00 +14°C° 0 mm 2 mps 733 mmHg 84%
    04:00 +13°C° 0 mm 2 mps 733 mmHg 85%
    05:00 +13°C° 0 mm 2 mps 733 mmHg 86%
    06:00 +14°C° 0 mm 2 mps 733 mmHg 82%
    07:00 +16°C° 0 mm 2 mps 733 mmHg 77%
    08:00 +18°C° 0 mm 2 mps 733 mmHg 73%
    09:00 +20°C° 0 mm 2 mps 733 mmHg 66%
    10:00 +23°C° 0 mm 2 mps 733 mmHg 60%
    11:00 +25°C° 0 mm 2 mps 733 mmHg 53%
    12:00 +26°C° 0 mm 3 mps 733 mmHg 50%
    13:00 +27°C° 0 mm 3 mps 733 mmHg 46%
    14:00 +28°C° 0 mm 3 mps 732 mmHg 43%
    15:00 +27°C° 0 mm 3 mps 732 mmHg 45%
    16:00 +27°C° 0 mm 3 mps 732 mmHg 47%
    17:00 +27°C° 0 mm 4 mps 732 mmHg 49%
    18:00 +25°C° 0 mm 4 mps 732 mmHg 56%
    19:00 +21°C° 0 mm 3 mps 732 mmHg 63%
    20:00 +19°C° 0 mm 3 mps 732 mmHg 70%
    21:00 +18°C° 0 mm 3 mps 731 mmHg 72%
    22:00 +17°C° 0 mm 3 mps 731 mmHg 74%
    23:00 +16°C° 0 mm 3 mps 731 mmHg 76%
    Show more